This is the latest recevied weather packets stored in our database for station/object JA0ZJX-13. If no packets are shown the sender has not sent any weather packets the latest 1 day(s).
| Time | Temp. | Humidity | Pressure | Rain* | Wind** | Luminosity | Snow |
|---|---|---|---|---|---|---|---|
| 1778102607 | 12.78° C | 85% | 1016.9 hPa | 0 mm | - | 239 W/m² | - |
| 1778101405 | 12.22° C | 86% | 1017 hPa | 0 mm | - | 167 W/m² | - |
| 1778099617 | 11.67° C | 86% | 1017 hPa | 0 mm | - | 58 W/m² | - |
| 1778096624 | 13.89° C | 78% | 1016.7 hPa | 0 mm | - | 0 W/m² | - |
| 1778094815 | 15° C | 79% | 1016.7 hPa | 0 mm | - | 0 W/m² | - |
| 1778094209 | 15° C | 78% | 1016.7 hPa | 0 mm | - | 0 W/m² | - |
| 1778093617 | 15.56° C | 77% | 1016.6 hPa | 0 mm | - | 0 W/m² | - |
| 1778093006 | 15.56° C | 76% | 1016.6 hPa | 0 mm | - | 0 W/m² | - |
| 1778092416 | 15.56° C | 76% | 1016.6 hPa | 0 mm | - | 0 W/m² | - |
| 1778091219 | 16.11° C | 76% | 1016.6 hPa | 0 mm | - | 0 W/m² | - |
| 1778090017 | 16.11° C | 76% | 1016.6 hPa | 0 mm | - | 0 W/m² | - |
| 1778088206 | 16.11° C | 76% | 1016.8 hPa | 0 mm | - | 0 W/m² | - |
| 1778087008 | 16.11° C | 77% | 1017 hPa | 0 mm | - | 0 W/m² | - |
| 1778084605 | 15.56° C | 77% | 1017.2 hPa | 0 mm | - | 0 W/m² | - |
| 1778084015 | 15.56° C | 77% | 1017.2 hPa | 0 mm | - | 0 W/m² | - |
| 1778081613 | 16.11° C | 75% | 1017.9 hPa | 0 mm | - | 0 W/m² | - |
| 1778079823 | 16.11° C | 75% | 1017.9 hPa | 0 mm | - | 0 W/m² | - |
| 1778078620 | 16.11° C | 74% | 1018 hPa | 0 mm | - | 0 W/m² | - |
| 1778077423 | 16.11° C | 74% | 1017.9 hPa | 0 mm | - | 0 W/m² | - |
| 1778076812 | 16.11° C | 73% | 1018 hPa | 0 mm | - | 0 W/m² | - |
| 1778072007 | 16.67° C | 71% | 1018.5 hPa | 0 mm | - | 0 W/m² | - |
| 1778071421 | 16.67° C | 71% | 1018.5 hPa | 0 mm | - | 0 W/m² | - |
| 1778069608 | 16.67° C | 71% | 1018.6 hPa | 0 mm | - | 0 W/m² | - |
| 1778069017 | 16.67° C | 71% | 1018.7 hPa | 0 mm | - | 0 W/m² | - |
| 1778067210 | 16.67° C | 70% | 1018.7 hPa | 0 mm | - | 0 W/m² | - |
* Rain latest hour (hover to see other rain measurements)
** Current wind speed in m/s (hover to see current wind gust speed)